Location: Cheching
(60.0667°N, 164.2167°W)
Time: 14:26:59
(UTC+00:00)

STRAND 1 - Pass Details

Date: 18 January 2021
Orbit: 768 x 780 km, 98.4° (Epoch: 04 March)

Event Time Altitude Azimuth Distance (km) Brightness Sun altitude
Rises 14:12:37 0° 88° (E) 3,251 ? -38.7°
Reaches altitude 10° 14:16:02 10° 64° (ENE) 2,329 ? -38.3°
Maximum altitude 14:18:32 14° 34° (NE) 2,077 ? -38.1°
Drops below altitude 10° 14:21:02 10° 5° (N) 2,337 ? -37.8°
Enters shadow 14:21:21 - 2° (N) 2,404 ? -37.8°
